Location: Arroyo de Valdeoliva
(40.1604°N, 4.9878°W)
Time: 05:37:51
(UTC+00:00)

Cosmos 1825 Rocket - Pass Details

Date: 21 March 2026
Orbit: 596 x 623 km, 82.5° (Epoch: 15 April)

Event Time Altitude Azimuth Distance (km) Brightness Sun altitude
Rises 04:10:22 0° 11° (N) 2,889 7.5 -25.3°
Reaches altitude 10° 04:13:30 10° 35° (NE) 1,972 6.9 -24.7°
Maximum altitude 04:16:02 15° 71° (ENE) 1,652 6.7 -24.3°
Drops below altitude 10° 04:18:33 10° 107° (ESE) 1,953 6.8 -23.8°
Sets 04:21:37 0° 130° (SE) 2,845 7.3 -23.3°
